Hourly Data Report for October 16, 2015

All times are specified in Local Standard Time (LST). Add 1 hour to adjust for Daylight Saving Time where and when it is observed.

BATHURST A
NEW BRUNSWICK

47°37'47.000" N
65°44'20.000" W
58.80 m
8100505
71574
ZBF

Download Data

Hourly Data (October 2015)
Hourly Data Report for October 16, 2015
Temp Definition
°C
Dew Point Temp Definition
°C
Rel Hum Definition
%
Wind Dir Definition
10's deg

Wind Spd Definition
km/h
Visibility Definition
km
Stn Press Definition
kPa
Hmdx Definition


Wind Chill Definition


Weather Definition


TIME
00:00 Legend Double Dagger 3.4 1.8 89 23 10 24.1 100.21     LegendNANA
01:00 Legend Double Dagger 3.5 1.7 88 23 8 24.1 100.22     LegendNANA
02:00 Legend Double Dagger 3.9 2.3 89 36 1 24.1 100.21     Cloudy
03:00 Legend Double Dagger 4.0 3.3 95 17 7 16.1 100.14     Rain Showers
04:00 Legend Double Dagger 4.4 3.7 95 18 4 11.3 100.11     LegendNANA
05:00 Legend Double Dagger 4.4 3.4 93 17 6 16.1 100.04     Cloudy
06:00 Legend Double Dagger 4.5 3.3 92 19 4 16.1 100.01     LegendNANA
07:00 Legend Double Dagger 4.6 3.1 90 19 9 24.1 99.97     LegendNANA
08:00 Legend Double Dagger 5.4 3.9 90 23 14 24.1 99.95     Cloudy
09:00 Legend Double Dagger 6.1 4.8 91 18 16 24.1 99.87     LegendNANA
10:00 Legend Double Dagger 7.1 5.9 92 19 12 19.3 99.82     Rain Showers
11:00 Legend Double Dagger 8.3 6.4 88 20 17 24.1 99.77     Cloudy
12:00 Legend Double Dagger 9.5 7.1 85 18 13 24.1 99.71     LegendNANA
13:00 Legend Double Dagger 11.4 7.5 77 21 10 24.1 99.60     LegendNANA
14:00 Legend Double Dagger 11.8 7.0 72 21 10 24.1 99.56     Cloudy
15:00 Legend Double Dagger 10.1 8.1 87 4 9 24.1 99.57     LegendNANA
16:00 Legend Double Dagger 8.3 7.2 93 33 15 16.1 99.68     Moderate Rain Showers
17:00 Legend Double Dagger 6.7 4.5 86 29 26 24.1 99.84     Cloudy
18:00 Legend Double Dagger 4.3 2.0 85 30 15 24.1 99.99     LegendNANA
19:00 Legend Double Dagger 3.8 1.2 83 29 21 24.1 100.14     LegendNANA
20:00 Legend Double Dagger 2.8 -0.3 80 29 19 24.1 100.25     Mostly Cloudy
21:00 Legend Double Dagger 1.7 -1.0 82 29 13 24.1 100.36     LegendNANA
22:00 Legend Double Dagger 0.7 -1.7 84 27 11 24.1 100.38     LegendNANA
23:00 Legend Double Dagger 0.4 -2.5 81 29 12 24.1 100.42     Clear

Notes on Data Quality.

Legend

  • E = Estimated
  • M = Missing
  • NA = Not Available
  • ‡ = Partner data that is not subject to review by the National Climate Archives
Date modified: